This is the latest recevied weather packets stored in our database for station/object W5ADC. If no packets are shown the sender has not sent any weather packets the latest 10 day(s).
| Time | Temp. | Humidity | Pressure | Rain* | Wind** | Luminosity | Snow |
|---|---|---|---|---|---|---|---|
| 1777298693 | 25.56° C | 84% | 1003.7 hPa | 0 mm | - | 241 W/m² | - |
| 1777298389 | 25.56° C | 84% | 1003.7 hPa | 0 mm | - | 132 W/m² | - |
| 1777298086 | 25.56° C | 84% | 1003.8 hPa | 0 mm | - | 182 W/m² | - |
| 1777297785 | 25° C | 85% | 1003.8 hPa | 0 mm | - | 193 W/m² | - |
| 1777297484 | 25° C | 86% | 1003.8 hPa | 0 mm | - | 159 W/m² | - |
| 1777297181 | 25° C | 86% | 1003.7 hPa | 0 mm | - | 138 W/m² | - |
| 1777296878 | 24.44° C | 86% | 1003.8 hPa | 0 mm | - | 167 W/m² | - |
| 1777296574 | 25° C | 86% | 1003.8 hPa | 0 mm | - | 108 W/m² | - |
| 1777296239 | 24.44° C | 86% | 1003.5 hPa | 0 mm | - | 137 W/m² | - |
| 1777295935 | 24.44° C | 86% | 1003.6 hPa | 0 mm | - | 114 W/m² | - |
| 1777295633 | 24.44° C | 86% | 1003.7 hPa | 0 mm | - | 104 W/m² | - |
| 1777295330 | 24.44° C | 86% | 1003.5 hPa | 0 mm | - | 104 W/m² | - |
| 1777295028 | 24.44° C | 86% | 1003.6 hPa | 0 mm | - | 91 W/m² | - |
| 1777294725 | 24.44° C | 86% | 1003.5 hPa | 0 mm | - | 78 W/m² | - |
| 1777294419 | 24.44° C | 86% | 1003.6 hPa | 0 mm | - | 60 W/m² | - |
| 1777294117 | 24.44° C | 86% | 1003.5 hPa | 0 mm | - | 54 W/m² | - |
| 1777293814 | 24.44° C | 86% | 1003.4 hPa | 0 mm | - | 52 W/m² | - |
| 1777293514 | 24.44° C | 86% | 1003.4 hPa | 0 mm | - | 59 W/m² | - |
| 1777293210 | 24.44° C | 86% | 1003.2 hPa | 0 mm | - | 45 W/m² | - |
| 1777292909 | 24.44° C | 86% | 1003.4 hPa | 0 mm | - | 47 W/m² | - |
| 1777292605 | 24.44° C | 86% | 1003.4 hPa | 0 mm | - | 36 W/m² | - |
| 1777292301 | 23.89° C | 86% | 1003.4 hPa | 0 mm | - | 30 W/m² | - |
| 1777291998 | 23.89° C | 86% | 1003.2 hPa | 0 mm | - | 23 W/m² | - |
| 1777291695 | 23.89° C | 87% | 1003.1 hPa | 0 mm | - | 18 W/m² | - |
| 1777291391 | 23.89° C | 87% | 1003.2 hPa | 0 mm | - | 15 W/m² | - |
* Rain latest hour (hover to see other rain measurements)
** Current wind speed in m/s (hover to see current wind gust speed)